Location: Lombard
(41.8800°N, 88.0080°W)
Time: 10:05:44
(UTC-05:00)

Tiros 1 - Pass Details

Date: 12 February 2023
Orbit: 628 x 662 km, 48.4° (Epoch: 20 March)

Event Time Altitude Azimuth Distance (km) Brightness Sun altitude
Rises 19:06:36 0° 198° (SSW) 2,904 10.7 -20.1°
Reaches altitude 10° 19:09:25 10° 181° (S) 1,997 9.7 -20.7°
Enters shadow 19:11:04 16° 162° (SSE) 1,613 9.0 -21.0°
